This is the latest recevied weather packets stored in our database for station/object N9BID. If no packets are shown the sender has not sent any weather packets the latest 10 day(s).
| Time | Temp. | Humidity | Pressure | Rain* | Wind** | Luminosity | Snow |
|---|---|---|---|---|---|---|---|
| 1788550892 | 29.44° C | 83% | 1012 hPa | 0 mm | - | 145 W/m² | - |
| 1788550587 | 29.44° C | 85% | 1011.9 hPa | 0 mm | - | 159 W/m² | - |
| 1788550284 | 29.44° C | 84% | 1011.9 hPa | 0 mm | - | 173 W/m² | - |
| 1788549983 | 29.44° C | 84% | 1011.9 hPa | 0 mm | - | 128 W/m² | - |
| 1788549679 | 30° C | 84% | 1012 hPa | 0 mm | - | 149 W/m² | - |
| 1788549375 | 30° C | 82% | 1011.9 hPa | 0 mm | - | 119 W/m² | - |
| 1788549071 | 30° C | 83% | 1012.2 hPa | 0 mm | - | 160 W/m² | - |
| 1788548767 | 29.44° C | 84% | 1012.1 hPa | 0 mm | - | 183 W/m² | - |
| 1788548464 | 30° C | 83% | 1012.3 hPa | 0 mm | - | 151 W/m² | - |
| 1788548160 | 29.44° C | 83% | 1012.3 hPa | 0 mm | - | 150 W/m² | - |
| 1788547860 | 29.44° C | 83% | 1012.1 hPa | 0 mm | - | 142 W/m² | - |
| 1788547554 | 29.44° C | 83% | 1012.5 hPa | 0 mm | - | 149 W/m² | - |
| 1788547249 | 30° C | 83% | 1012.6 hPa | 0 mm | - | 143 W/m² | - |
| 1788546944 | 29.44° C | 86% | 1012.3 hPa | 0 mm | - | 198 W/m² | - |
| 1788546639 | 28.89° C | 86% | 1012.4 hPa | 0 mm | - | 141 W/m² | - |
| 1788546334 | 28.89° C | 86% | 1012.3 hPa | 0 mm | - | 108 W/m² | - |
| 1788546029 | 28.89° C | 86% | 1012.4 hPa | 0 mm | - | 96 W/m² | - |
| 1788545725 | 28.89° C | 86% | 1012.5 hPa | 0 mm | - | 65 W/m² | - |
| 1788545424 | 28.33° C | 87% | 1012.3 hPa | 0 mm | - | 77 W/m² | - |
| 1788545119 | 27.78° C | 89% | 1012.3 hPa | 0 mm | - | 86 W/m² | - |
| 1788544815 | 27.78° C | 89% | 1012.5 hPa | 0 mm | - | 72 W/m² | - |
| 1788544509 | 27.78° C | 88% | 1012.5 hPa | 0 mm | - | 87 W/m² | - |
| 1788544208 | 27.78° C | 89% | 1012.3 hPa | 0 mm | - | 71 W/m² | - |
| 1788543908 | 27.78° C | 88% | 1012.4 hPa | 0 mm | - | 113 W/m² | - |
| 1788543605 | 27.78° C | 89% | 1012.5 hPa | 0 mm | - | 93 W/m² | - |
* Rain latest hour (hover to see other rain measurements)
** Current wind speed in m/s (hover to see current wind gust speed)